Location: Limerick
(52.6800°N, 8.6400°W)
Time: 11:34:22
(UTC+01:00)

Sapphire - Visible Passes

Search period start: 02 September 2015 00:00
Search period end: 12 September 2015 00:00
Orbit: 788 x 794 km, 67.1° (Epoch: 01 September)

Date Brightness Start Highest point End Pass type
(mag) Time Alt. Az. Time Alt. Az. Time Alt. Az.
02 Sep ? 01:41:02 12° E 01:41:02 12° E 01:42:17 10° ENE visible
02 Sep ? 03:21:46 62° SSE 03:22:15 66° SE 03:27:40 10° NE visible
02 Sep ? 05:02:30 17° W 05:06:05 35° NW 05:11:05 10° NNE visible
03 Sep ? 02:52:01 51° ESE 02:52:01 51° ESE 02:57:01 10° NE visible
03 Sep ? 04:32:45 26° W 04:35:21 42° NW 04:40:31 10° NNE visible
04 Sep ? 02:22:16 37° E 02:22:16 37° E 02:26:19 10° NE visible
04 Sep ? 04:03:00 38° W 04:04:38 50° NW 04:09:57 10° NE visible
04 Sep ? 05:45:11 10° WNW 05:49:19 21° NNW 05:53:26 10° NNE visible
05 Sep ? 01:52:29 26° E 01:52:29 26° E 01:55:33 10° NE visible
05 Sep ? 03:33:13 55° W 03:33:58 61° NW 03:39:23 10° NE visible
05 Sep ? 05:14:07 10° WNW 05:18:28 23° NNW 05:22:47 10° NNE visible
06 Sep ? 01:22:40 19° ENE 01:22:40 19° ENE 01:24:42 10° ENE visible
06 Sep ? 03:03:24 75° NW 03:03:24 75° NW 03:08:48 10° NE visible
06 Sep ? 04:44:08 14° WNW 04:47:38 26° NNW 04:52:09 10° NNE visible
07 Sep ? 00:52:51 13° ENE 00:52:51 13° ENE 00:53:43 10° ENE visible
07 Sep ? 02:33:34 65° NE 02:33:34 65° NE 02:38:13 10° NE visible
07 Sep ? 04:14:18 21° WNW 04:16:49 29° NNW 04:21:34 10° NNE visible
07 Sep ? 05:58:17 10° NW 06:01:58 18° N 06:05:38 10° NE visible
08 Sep ? 02:03:44 46° ENE 02:03:44 46° ENE 02:07:36 10° NE visible
08 Sep ? 03:44:28 29° WNW 03:46:02 34° NNW 03:50:59 10° NNE visible
08 Sep ? 05:27:18 10° NW 05:31:04 18° N 05:34:49 10° NE visible
09 Sep ? 01:33:53 33° ENE 01:33:53 33° ENE 01:36:57 10° NE visible
09 Sep ? 03:14:36 38° NW 03:15:17 40° NW 03:20:25 10° NNE visible
09 Sep ? 04:56:16 10° WNW 05:00:11 19° NNW 05:04:04 10° NNE visible
10 Sep ? 01:04:00 24° ENE 01:04:00 24° ENE 01:06:16 10° NE visible
10 Sep ? 02:44:43 47° NW 02:44:43 47° NW 02:49:51 10° NNE visible
10 Sep ? 04:25:27 11° WNW 04:29:18 21° NNW 04:33:22 10° NNE visible
10 Sep ? 06:10:53 10° NW 06:14:40 19° N 06:18:29 10° NE visible
11 Sep ? 00:34:06 17° ENE 00:34:06 17° ENE 00:35:31 10° NE visible
11 Sep ? 02:14:50 50° N 02:14:50 50° N 02:19:17 10° NE visible
11 Sep ? 03:55:33 15° WNW 03:58:27 23° NNW 04:02:42 10° NNE visible
11 Sep ? 05:40:05 10° NW 05:43:46 18° N 05:47:28 10° NE visible
